Location: G�kdere
(37.0328°N, 30.9000°E)
Time: 22:34:55
(UTC+00:00)

Cosmos 1470 Rocket - Pass Details

Date: 03 March 2021
Orbit: 603 x 634 km, 82.5° (Epoch: 18 April)

Event Time Altitude Azimuth Distance (km) Brightness Sun altitude
Rises 16:55:13 0° 191° (SSW) 2,914 7.1 -13.3°
Reaches altitude 10° 16:57:28 10° 194° (SSW) 2,010 6.3 -13.7°
Maximum altitude 17:01:54 69° 278° (W) 680 3.9 -14.6°
Drops below altitude 10° 17:06:22 10° 2° (N) 2,015 6.2 -15.5°
Sets 17:08:37 0° 5° (N) 2,922 7.0 -16.0°
